Regional Weather Roundup
Issued by NWS

Home | Current Version | Previous Version | Graphics & Text | Print | Product List | Glossary Off
Versions: 1 2 3 4 5 6 7 8 9 10 11 12 13 14 15 16 17 18 19 20 21 22 23 24 25 26 27 28 29 30 31 32 33 34 35 36 37 38 39 40 41 42 43 44 45 46 47 48 49 50

000
ASUS43 KDMX 040307
RWRIA

WEATHER ROUNDUP FOR IOWA
NATIONAL WEATHER SERVICE DES MOINES IA
1000 PM CDT THU SEP 03 2015

NOTE: "FAIR" INDICATES FEW OR NO CLOUDS BELOW 12,000 FEET WITH NO
SIGNIFICANT WEATHER AND/OR OBSTRUCTIONS TO VISIBILITY.

* - THESE STATIONS ARE NOT NWS STATIONS...THUS NOT UNDER NWS
QUALITY CONTROL.  THEY ALSO DO NOT REPORT WEATHER SUCH
AS PRECIPITATION OR FOG.

IAZ001>003-012>014-020>022-031>034-043>046-040400-
   NORTHWEST IOWA

CITY           SKY/WX    TMP DP  RH WIND       PRES   REMARKS
CARROLL *      CLEAR     72  72 100 SE5       29.88R
CHEROKEE *     CLEAR     77  75  94 S6        29.85R
DENISON *      PTCLDY    77  72  83 S13       29.85R
LE MARS *      CLEAR     77  73  88 S6        29.83R
ORANGE CITY *  CLEAR     79  73  83 SE3       29.84S HX  82
SHELDON *      CLEAR     75  73  94 E6        29.84R
SIOUX CITY     PTCLDY    77  71  82 SE9       29.81R
SPENCER        PTCLDY    78  72  81 SE8       29.87R HAZE    HX  80
STORM LAKE *   CLEAR     75  73  94 SE7       29.88R
$$

IAZ055>058-069>071-079>083-090>094-040400-
   SOUTHWEST IOWA

CITY           SKY/WX    TMP DP  RH WIND       PRES   REMARKS
ATLANTIC *     CLEAR     77  72  83 VRB7      29.88R
AUDUBON *      CLEAR     73  70  88 CALM      29.89R
CLARINDA *     CLEAR     77  72  83 S6        29.90R
COUNCIL BLFS * CLEAR     77  73  88 S10       29.86R
CRESTON *      CLEAR     75  70  83 S9        29.92R
LAMONI         CLEAR     78  69  73 S7        29.91R HX  80
RED OAK *      CLEAR     77  72  83 S6        29.88R
SHENANDOAH *   CLEAR     77  72  83 SE8       29.87R
$$

IAZ047>049-059>061-072>074-084-040400-
   CENTRAL IOWA

CITY           SKY/WX    TMP DP  RH WIND       PRES   REMARKS
AMES           PTCLDY    76  72  87 SE6       29.89R
ANKENY *       CLEAR     79  73  83 CALM      29.89R HX  82
CHARITON *     CLEAR     75  70  83 SE5       29.91R
DES MOINES     PTCLDY    79  71  76 S6        29.89R HX  82
GRINNELL*      PTCLDY    77  72  83 SE6       29.92S
KNOXVILLE *    CLEAR     77  70  78 SE5       29.90R
MARSHALLTOWN   PTCLDY    77  72  84 SE7       29.90R
PELLA *        CLEAR     77  73  88 SE6       29.91S
PERRY *          N/A     75  72  88 SE5       29.89R
$$

IAZ004>006-015-016-023>025-035-036-040400-
   NORTH CENTRAL IOWA

CITY           SKY/WX    TMP DP  RH WIND       PRES   REMARKS
ALGONA *       PTCLDY    79  73  83 S8        29.89R HX  82
CLARION *      PTCLDY    77  73  88 S8        29.89R
ESTHERVILLE    CLEAR     74  72  93 S6        29.87R
FORT DODGE *   CLEAR     79  70  73 SE5       29.89R HX  81
MASON CITY     PTCLDY    76  73  91 S8        29.91R
FOREST CITY *    N/A     73  73 100 SE7       29.90R
IOWA FALLS *     N/A     75  73  94 CALM      29.92R
$$

IAZ007>011-017>019-026>030-037>042-050>054-066-040400-
   NORTHEAST IOWA

CITY           SKY/WX    TMP DP  RH WIND       PRES   REMARKS
CEDAR RAPIDS   CLEAR     75  73  93 SE3       29.91R
CHARLES CITY * PTCLDY    77  77 100 SE5       29.92R
CLINTON *      CLEAR     77  70  78 S5        29.95R
DECORAH *      CLEAR     77  73  88 SE5       29.92R
DUBUQUE        PTCLDY    76  72  87 CALM      29.95R
MONTICELLO *   PTCLDY    73  72  94 CALM      29.92R
OELWEIN *      CLEAR     75  73  94 SE6       29.93R
WATERLOO       MOCLDY    79  73  82 SE6       29.89R HX  82
$$

IAZ064-065-067-068-078-040400-
   EAST CENTRAL IOWA

CITY           SKY/WX    TMP DP  RH WIND       PRES   REMARKS
DAVENPORT      PTCLDY    75  71  87 S5        29.93R
IOWA CITY      CLEAR     77  73  87 CALM      29.92R
MT. PLEASANT * CLEAR     77  66  69 SE5       29.93R
MUSCATINE *    CLEAR     75  72  88 CALM      29.92R
QUAD CITIES    CLEAR     77  71  82 CALM      29.92R
$$

IAZ062-063-075>077-085>089-095>099-040400-
   SOUTHEAST IOWA

CITY           SKY/WX    TMP DP  RH WIND       PRES   REMARKS
BURLINGTON     CLEAR     78  71  79 CALM      29.93R HX  80
FAIRFIELD *    CLEAR     75  68  78 CALM      29.93R
FORT MADISON * PTCLDY    75  72  88 CALM      29.94R
KEOKUK *       CLEAR     77  70  78 CALM      29.92R
OSKALOOSA *    MOCLDY    75  70  83 S5        29.92R
CENTERVILLE *  CLEAR     73  68  83 SE7       29.94R
OTTUMWA        CLEAR     74  70  87 S5        29.91R
WASHINGTON *     N/A    N/A N/A N/A MISG        N/A
$$

ABBREVIATIONS USED IN REMARKS
   TC - TEMPERATURES IN CELSIUS
  WCI - WIND CHILL INDEX
   HX - HEAT INDEX
  VSB - VISIBILITY
$$




USA.gov is the U.S. government's official web portal to all federal, state and local government web resources and services.